Location: Austin
(30.3000°N, 97.7500°W)
Time: 04:03:49
(UTC-06:00)

Cosmos 1048 Rocket - Pass Details

Date: 20 November 2023
Orbit: 742 x 789 km, 74.0° (Epoch: 04 December)

Event Time Altitude Azimuth Distance (km) Brightness Sun altitude
Rises 18:53:52 0° 342° (NNW) 3,183 7.3 -17.6°
Reaches altitude 10° 18:56:13 10° 341° (NNW) 2,259 6.5 -18.1°
Maximum altitude 19:01:19 79° 255° (WSW) 763 4.0 -19.2°
Drops below altitude 10° 19:06:27 10° 170° (S) 2,266 6.4 -20.2°
Sets 19:08:48 0° 168° (SSE) 3,193 7.2 -20.7°
